User: anonymous   Login
Location: Theydon Bois
(51.6750°N, 0.1050°E)
Time: 10:20:31
(UTC+01:00)
Language:

Meteor 1-16 Rocket - Orbit

View from above orbital plane
View from above orbital plane
View from above satellite
View from above satellite

Ground track
Ground track

The orbit data is extracted from the following two-line orbital elements,

1 07210U 74011B   18168.15222359  .00000027  00000-0  72248-5 0  9993
2 07210  81.2378  50.2107 0081922  60.4145 300.5159 14.13056409281522
Epoch (UTC): 17 June 2018 03:39:12
Eccentricity: 0.0081922
inclination: 81.2378°
perigee height: 790 km
apogee height: 908 km
right ascension of ascending node: 50.2107°
argument of perigee: 60.4145°
revolutions per day: 14.13056409
mean anomaly at epoch: 300.5159°
orbit number at epoch: 28152

The dashed part of the orbit path shows where the satellite is in the earth's shadow,  

DLR